Погода в Кировском

Россия / Саратовская область     51°33′30″N   47°13′08″E
темп.,
°C
ветер,
м/с
пор.,
м/с
влажн.,
%
обл.,
%
осадки,
мм/ч
давл.,
гПа
погр.,
м
24 мая, вт
вт2401:00+5сз37805 0.0 1006156
04:00+4сз35825 0.0 100687
07:00+6сз237013 0.0 1008184
10:00+11зсз33500 0.0 1008926
13:00+15зсз34415 0.0 10081777
16:00+16зюз453992 0.0 10082365
19:00+14з365679 0.0 1008294
22:00+10зюз476965 0.0 1009113
25 мая, ср
ср2501:00+9юз4107766 0.0 1009184
04:00+7з488591 0.0 1009194
07:00+8сз4106999 0.0 1010493
10:00+10зсз786494 0.0 10111243
13:00+10зсз565695 0.0 10131486
16:00+11зсз5747100 0.0 10141859
19:00+11сз455388 0.0 10141097
22:00+6зсз36685 0.0 1016108
26 мая, чт
чт2601:00+5зсз33745 0.0 101630
04:00+5з237583 0.0 101737
07:00+7зюз2368100 0.0 1017169
10:00+11зюз34535 0.0 10171385
13:00+12зюз5653100 0.0 10171455
16:00+14зюз455178 0.0 10161636
19:00+15ююз345421 0.0 1015664
22:00+12ююв51164100 0.0 1015270
27 мая, пт
пт2701:00+11ю71467100 0.0 1013316
04:00+13ююз71470100 0.1 1011601
07:00+12ююз81584100 0.5 1010837
10:00+14юз8107699 0.6 1010955
13:00+19зюз91153100 0.4 10081944
16:00+18юз9136176 2.4 10081696
19:00+17зюз711745 1.8 10081014
22:00+13зюз511871 2.2 1010217
28 мая, сб
сб2801:00+11зюз411855 0.0 1011191
04:00+9зюз35848 0.0 101267
07:00+12ююз477991 0.0 1012219
10:00+18ююз7105559 0.0 10121191
13:00+22юз8115199 0.1 10112076
16:00+23юз81150100 0.1 10102269
19:00+21ююз8146265 0.0 1010898
22:00+16юз498212 0.1 1012182